Weather History for EGPK - June, 2013

Change the Weather History Date:

Friday, June 28, 2013

  Actual Average Record
Temperature  
Mean Temperature 55 °F -  
Max Temperature 57 °F 63 °F 71 °F (2005)
Min Temperature 53 °F 51 °F 42 °F (2011)
Degree Days  
Heating Degree Days 10    
Growing Degree Days 5 (Base 50)    
Moisture  
Dew Point 52 °F    
Average Humidity 89    
Maximum Humidity 100    
Minimum Humidity 72    
Precipitation  
Precipitation 0.00 in - - ()
Sea Level Pressure  
Sea Level Pressure 30.06 in    
Wind  
Wind Speed 9 mph ()    
Max Wind Speed 24 mph    
Max Gust Speed -    
Visibility 4.9 miles    
Events Rain    
Averages and records for this station are not official NWS values.
T = Trace of Precipitation, MM = Missing Value Source: Averaged Metar Reports

Daily Weather History Graph

Daily Weather History Graph

Search for Another Location

Airport or City:

Trip Planner

Search our weather history database for the weather conditions in past years. The results will help you decide how hot, cold, wet, or windy it might be!

Date:

Astronomy

Jun. 28, 2013 Rise Set
Actual Time 4:38 AM BST 10:04 PM BST
Civil Twilight 3:38 AM BST 11:04 PM BST
Nautical Twilight 1:53 AM BST 12:49 AM BST
Astronomical Twilight Sun does not set Sun does not set
Moon No Moon Rise 11:39 AM BST (6/28)
Length of Visible Light 19h 25m
Length of Day
17h 26m
Waning Gibbous, 68% of the Moon is Illuminated
Jun 28
Waning Gibbous
Jun 30
Last Quarter
Jul 8
New
Jul 16
First Quarter
Jul 22
Full

Hourly Weather History & Observations

Time (BST) Temp. Dew Point Humidity Pressure Visibility Wind Dir Wind Speed Gust Speed Precip Events Conditions
12:20 AM 55.4 °F 53.6 °F 94% 30.18 in 5.6 mi West 2.3 mph - N/A   Mostly Cloudy
12:50 AM 55.4 °F 53.6 °F 94% 30.18 in 5.6 mi Calm Calm - N/A   Mostly Cloudy
1:50 AM 55.4 °F 53.6 °F 94% 30.15 in 3.1 mi WSW 2.3 mph - N/A   Light Drizzle
2:50 AM 55.4 °F 53.6 °F 94% 30.12 in 3.1 mi SW 3.5 mph - N/A   Light Drizzle
3:50 AM 55.4 °F 53.6 °F 94% 30.12 in 4.3 mi WSW 5.8 mph - N/A   Light Drizzle
4:50 AM 55.4 °F 53.6 °F 94% 30.12 in 4.3 mi West 8.1 mph - N/A Rain Light Rain
5:50 AM 55.4 °F 53.6 °F 94% 30.09 in 5.0 mi SW 9.2 mph - N/A Rain Rain
6:50 AM 55.4 °F 53.6 °F 94% 30.09 in 5.0 mi WSW 9.2 mph - N/A Rain Light Rain
7:20 AM 55.4 °F 53.6 °F 94% 30.06 in 3.7 mi SW 9.2 mph - N/A Rain Rain
7:50 AM 55.4 °F 55.4 °F 100% 30.06 in 2.5 mi SW 6.9 mph - N/A Rain Rain
8:20 AM 55.4 °F 55.4 °F 100% 30.06 in 5.0 mi SW 8.1 mph - N/A Rain Light Rain
8:50 AM 55.4 °F 55.4 °F 100% 30.04 in 2.2 mi SW 11.5 mph - N/A Rain Light Rain
9:20 AM 57.2 °F 55.4 °F 94% 30.04 in 3.7 mi SW 10.4 mph - N/A Rain Light Rain
9:50 AM 57.2 °F 55.4 °F 94% 30.04 in 2.8 mi WSW 9.2 mph - N/A Rain Rain
10:20 AM 57.2 °F 57.2 °F 100% 30.04 in 2.8 mi WSW 11.5 mph - N/A Rain Rain
10:50 AM 57.2 °F 55.4 °F 94% 30.04 in 2.8 mi WSW 11.5 mph - N/A Rain Rain
11:20 AM 57.2 °F 55.4 °F 94% 30.01 in 3.7 mi SW 12.7 mph - N/A Rain Light Rain
11:50 AM 57.2 °F 55.4 °F 94% 30.01 in 3.1 mi WSW 12.7 mph - N/A Rain Light Rain
12:20 PM 57.2 °F 55.4 °F 94% 30.01 in 2.8 mi WSW 16.1 mph - N/A Rain Light Rain
12:50 PM 57.2 °F 55.4 °F 94% 30.01 in 2.8 mi WSW 15.0 mph - N/A Rain Light Rain
1:20 PM 57.2 °F 55.4 °F 94% 30.01 in 3.7 mi WSW 16.1 mph - N/A Rain Light Rain
1:50 PM 57.2 °F 55.4 °F 94% 29.98 in 6.2 mi WSW 15.0 mph - N/A Rain Light Rain
2:20 PM 57.2 °F 55.4 °F 94% 29.98 in 5.6 mi West 11.5 mph - N/A Rain Light Rain
2:50 PM 57.2 °F 55.4 °F 94% 29.98 in 6.2 mi West 11.5 mph - N/A   Mostly Cloudy
3:20 PM 57.2 °F 55.4 °F 94% 30.01 in 5.0 mi West 13.8 mph - N/A Rain Light Rain
3:50 PM 57.2 °F 55.4 °F 94% 30.01 in 5.0 mi WNW 15.0 mph - N/A Rain Light Rain
4:20 PM 57.2 °F 53.6 °F 88% 30.01 in 6.2 mi WNW 16.1 mph - N/A   Mostly Cloudy
4:50 PM 55.4 °F 53.6 °F 94% 30.01 in 6.2 mi WNW 17.3 mph - N/A   Scattered Clouds
5:20 PM 55.4 °F 51.8 °F 88% 30.01 in 6.2 mi WNW 18.4 mph - N/A   Scattered Clouds
5:50 PM 55.4 °F 51.8 °F 88% 30.04 in 6.2 mi West 16.1 mph - N/A   Scattered Clouds
6:20 PM 57.2 °F 51.8 °F 82% 30.04 in 6.2 mi WNW 21.9 mph - N/A   Scattered Clouds
6:50 PM 57.2 °F 51.8 °F 82% 30.04 in 6.2 mi WNW 18.4 mph - N/A   Scattered Clouds
7:20 PM 55.4 °F 48.2 °F 77% 30.04 in 6.2 mi WNW 24.2 mph - N/A   Scattered Clouds
7:50 PM 55.4 °F 48.2 °F 77% 30.06 in 6.2 mi West 18.4 mph - N/A   Scattered Clouds
8:20 PM 53.6 °F 46.4 °F 77% 30.06 in 6.2 mi West 17.3 mph - N/A   Mostly Cloudy
8:50 PM 53.6 °F 46.4 °F 77% 30.06 in 6.2 mi WNW 17.3 mph - N/A   Mostly Cloudy
9:20 PM 53.6 °F 46.4 °F 77% 30.09 in 6.2 mi WNW 16.1 mph - N/A   Mostly Cloudy
9:50 PM 53.6 °F 46.4 °F 77% 30.09 in 6.2 mi WNW 15.0 mph - N/A   Scattered Clouds
10:20 PM 53.6 °F 44.6 °F 72% 30.09 in 6.2 mi West 13.8 mph - N/A   Mostly Cloudy
10:50 PM 53.6 °F 44.6 °F 72% 30.12 in 6.2 mi WNW 13.8 mph - N/A   Mostly Cloudy
11:20 PM 53.6 °F 46.4 °F 77% 30.09 in 6.2 mi West 13.8 mph - N/A   Mostly Cloudy
11:50 PM 53.6 °F 46.4 °F 77% 30.12 in 6.2 mi West 13.8 mph - N/A   Mostly Cloudy